GW2490 Weather Reports


Display with metric or nautical units.
time (UTC)temp
F
wind
direction
speed
MPH
gust
MPH
rain 1hr
in
rain 24hr
in
rain mn
in
humidity
%
barometer
mb
20260902090556 0 0.0 0.0 0.00 0.00 0.00
20260902090458 57 120 6.0 9.0 0.00 0.00 0.00 87 1006.7
20260902090056 0 0.0 0.0 0.00 0.00 0.00
20260902085957 57 118 7.0 9.0 0.00 0.00 0.00 87 1006.7
20260902085555 0 0.0 0.0 0.00 0.00 0.00
20260902085457 57 129 5.0 7.0 0.00 0.00 0.00 87 1006.7
20260902084958 57 126 6.0 8.0 0.00 0.00 0.00 87 1006.7
20260902084553 0 0.0 0.0 0.00 0.00 0.00
20260902084457 57 124 6.0 9.0 0.00 0.00 0.00 87 1006.8
20260902083958 57 128 5.0 6.0 0.00 0.00 0.00 87 1006.9
20260902083553 0 0.0 0.0 0.00 0.00 0.00
20260902083053 0 0.0 0.0 0.00 0.00 0.00
20260902083008 57 126 6.0 8.0 0.00 0.00 0.00 87 1006.9
20260902082553 0 0.0 0.0 0.00 0.00 0.00
20260902082457 57 130 6.0 8.0 0.00 0.00 0.00 87 1006.9
20260902081957 57 124 6.0 8.0 0.00 0.00 0.00 87 1006.9
20260902081457 57 128 6.0 7.0 0.00 0.00 0.00 86 1006.9
20260902080958 57 131 6.0 9.0 0.00 0.00 0.00 86 1006.9
20260902080554 0 0.0 0.0 0.00 0.00 0.00
20260902080459 57 128 5.0 6.0 0.00 0.00 0.00 86 1007.0
20260902080052 0 0.0 0.0 0.00 0.00 0.00
20260902075958 57 128 6.0 9.0 0.00 0.00 0.00 86 1006.9
20260902075552 0 0.0 0.0 0.00 0.00 0.00
20260902075457 57 122 6.0 7.0 0.00 0.00 0.00 86 1007.0
20260902075053 0 0.0 0.0 0.00 0.00 0.00
20260902075001 57 127 5.0 7.0 0.00 0.00 0.00 86 1007.1
20260902074552 0 0.0 0.0 0.00 0.00 0.00
20260902074457 57 124 6.0 8.0 0.00 0.00 0.00 85 1007.0
20260902074052 0 0.0 0.0 0.00 0.00 0.00
20260902073957 57 121 7.0 9.0 0.00 0.00 0.00 85 1007.1
20260902073458 57 124 6.0 8.0 0.00 0.00 0.00 85 1007.0
20260902073052 0 0.0 0.0 0.00 0.00 0.00
20260902072957 57 119 6.0 8.0 0.00 0.00 0.00 85 1007.1
20260902072457 57 125 6.0 10.0 0.00 0.00 0.00 85 1007.1
20260902072056 0 0.0 0.0 0.00 0.00 0.00
20260902071957 57 121 6.0 8.0 0.00 0.00 0.00 85 1007.1
20260902071552 0 0.0 0.0 0.00 0.00 0.00
20260902071457 57 124 6.0 8.0 0.00 0.00 0.00 85 1007.2
20260902070957 57 126 6.0 9.0 0.00 0.00 0.00 85 1007.2
20260902070556 0 0.0 0.0 0.00 0.00 0.00
20260902070457 57 122 6.0 8.0 0.00 0.00 0.00 85 1007.4
20260902070052 0 0.0 0.0 0.00 0.00 0.00
20260902065957 57 121 6.0 8.0 0.00 0.00 0.00 85 1007.5
20260902065457 58 124 6.0 8.0 0.00 0.00 0.00 85 1007.5
20260902064958 58 129 6.0 9.0 0.00 0.00 0.00 85 1007.6
20260902064457 58 127 5.0 7.0 0.00 0.00 0.00 84 1007.6
20260902064052 0 0.0 0.0 0.00 0.00 0.00
20260902063957 58 138 5.0 7.0 0.00 0.00 0.00 84 1007.7
20260902063556 0 0.0 0.0 0.00 0.00 0.00
20260902063457 58 129 5.0 9.0 0.00 0.00 0.00 85 1007.7
20260902063050 0 0.0 0.0 0.00 0.00 0.00
20260902062958 58 125 6.0 7.0 0.00 0.00 0.00 85 1007.7
20260902062556 0 0.0 0.0 0.00 0.00 0.00
20260902062457 58 125 5.0 7.0 0.00 0.00 0.00 84 1007.8
20260902062047 0 0.0 0.0 0.00 0.00 0.00
20260902061957 58 125 6.0 9.0 0.00 0.00 0.00 84 1007.8
20260902061457 58 131 5.0 7.0 0.00 0.00 0.00 84 1007.7
20260902061047 0 0.0 0.0 0.00 0.00 0.00
20260902060958 58 145 5.0 9.0 0.00 0.00 0.00 84 1007.8
20260902060547 0 0.0 0.0 0.00 0.00 0.00
20260902060457 58 129 6.0 8.0 0.00 0.00 0.00 83 1007.8
20260902060048 0 0.0 0.0 0.00 0.00 0.00
20260902055958 58 119 6.0 10.0 0.00 0.00 0.00 83 1007.9
20260902055457 58 127 6.0 9.0 0.00 0.00 0.00 83 1007.8
20260902055053 0 0.0 0.0 0.00 0.00 0.00
20260902054957 59 116 7.0 8.0 0.00 0.00 0.00 83 1007.8
20260902054547 0 0.0 0.0 0.00 0.00 0.00
20260902054457 59 124 5.0 8.0 0.00 0.00 0.00 83 1007.8
20260902054048 0 0.0 0.0 0.00 0.00 0.00
20260902053957 59 122 5.0 9.0 0.00 0.00 0.00 82 1007.8
20260902053551 0 0.0 0.0 0.00 0.00 0.00
20260902053457 59 114 6.0 7.0 0.00 0.00 0.00 82 1007.8
20260902053048 0 0.0 0.0 0.00 0.00 0.00
20260902052958 59 130 5.0 7.0 0.00 0.00 0.00 81 1008.0
20260902052550 0 0.0 0.0 0.00 0.00 0.00
20260902052457 59 117 5.0 6.0 0.00 0.00 0.00 81 1008.1
20260902052048 0 0.0 0.0 0.00 0.00 0.00
20260902051957 59 128 4.0 5.0 0.00 0.00 0.00 81 1008.2
20260902051457 59 120 5.0 7.0 0.00 0.00 0.00 80 1008.2
20260902051045 0 0.0 0.0 0.00 0.00 0.00
20260902050958 59 123 5.0 6.0 0.00 0.00 0.00 80 1008.2
20260902050546 0 0.0 0.0 0.00 0.00 0.00
20260902050457 59 134 4.0 6.0 0.00 0.00 0.00 80 1008.2
20260902050045 0 0.0 0.0 0.00 0.00 0.00
20260902045957 59 129 5.0 7.0 0.00 0.00 0.00 80 1008.2
20260902045545 0 0.0 0.0 0.00 0.00 0.00
20260902045457 60 131 4.0 5.0 0.00 0.00 0.00 79 1008.2
20260902044957 60 126 4.0 5.0 0.00 0.00 0.00 79 1008.2
20260902044546 0 0.0 0.0 0.00 0.00 0.00
20260902044459 60 118 4.0 6.0 0.00 0.00 0.00 78 1008.2
20260902043958 60 124 4.0 6.0 0.00 0.00 0.00 77 1008.2
20260902043457 60 116 4.0 6.0 0.00 0.00 0.00 77 1008.2
20260902043046 0 0.0 0.0 0.00 0.00 0.00
20260902042959 60 110 5.0 6.0 0.00 0.00 0.00 77 1008.2
20260902042546 0 0.0 0.0 0.00 0.00 0.00
20260902042457 60 117 4.0 6.0 0.00 0.00 0.00 77 1008.3
20260902042044 0 0.0 0.0 0.00 0.00 0.00
20260902041957 60 123 3.0 4.0 0.00 0.00 0.00 77 1008.3
20260902041540 0 0.0 0.0 0.00 0.00 0.00
20260902041457 60 120 4.0 6.0 0.00 0.00 0.00 77 1008.4
20260902041037 0 0.0 0.0 0.00 0.00 0.00
20260902041010 60 130 3.0 6.0 0.00 0.00 0.00 77 1008.3
20260902040457 60 114 4.0 5.0 0.00 0.00 0.00 77 1008.3
20260902040037 0 0.0 0.0 0.00 0.00 0.00
20260902035957 60 118 3.0 5.0 0.00 0.00 0.00 77 1008.3
20260902035538 0 0.0 0.0 0.00 0.00 0.00
20260902035457 60 119 4.0 5.0 0.00 0.00 0.00 76 1008.3
20260902035038 0 0.0 0.0 0.00 0.00 0.00
20260902034957 60 112 3.0 4.0 0.00 0.00 0.00 76 1008.3
20260902034538 0 0.0 0.0 0.00 0.00 0.00
20260902034457 60 118 3.0 4.0 0.00 0.00 0.00 77 1008.4
20260902034038 0 0.0 0.0 0.00 0.00 0.00
20260902033957 60 125 3.0 4.0 0.00 0.00 0.00 77 1008.4
20260902033537 0 0.0 0.0 0.00 0.00 0.00
20260902033459 60 129 3.0 5.0 0.00 0.00 0.00 76 1008.4
20260902033037 0 0.0 0.0 0.00 0.00 0.00
20260902032957 60 106 4.0 5.0 0.00 0.00 0.00 77 1008.3
20260902032458 60 113 3.0 5.0 0.00 0.00 0.00 77 1008.4
20260902032035 0 0.0 0.0 0.00 0.00 0.00
20260902031957 60 132 3.0 4.0 0.00 0.00 0.00 77 1008.4
20260902031535 0 0.0 0.0 0.00 0.00 0.00
20260902031457 60 125 2.0 4.0 0.00 0.00 0.00 76 1008.3
20260902031036 0 0.0 0.0 0.00 0.00 0.00
20260902030958 60 116 4.0 5.0 0.00 0.00 0.00 76 1008.3
20260902030535 0 0.0 0.0 0.00 0.00 0.00
20260902030457 60 120 3.0 5.0 0.00 0.00 0.00 76 1008.3
20260902030035 0 0.0 0.0 0.00 0.00 0.00
20260902025957 60 133 3.0 4.0 0.00 0.00 0.00 75 1008.3
20260902025535 0 0.0 0.0 0.00 0.00 0.00
20260902025458 60 128 3.0 4.0 0.00 0.00 0.00 75 1008.3
20260902024957 60 129 3.0 6.0 0.00 0.00 0.00 75 1008.3
20260902024537 0 0.0 0.0 0.00 0.00 0.00
20260902024457 60 125 3.0 4.0 0.00 0.00 0.00 75 1008.3
20260902023957 60 123 3.0 4.0 0.00 0.00 0.00 75 1008.3
20260902023535 0 0.0 0.0 0.00 0.00 0.00
20260902023458 60 113 4.0 6.0 0.00 0.00 0.00 75 1008.3
20260902023036 0 0.0 0.0 0.00 0.00 0.00
20260902022957 60 115 3.0 5.0 0.00 0.00 0.00 74 1008.3
20260902022457 60 130 3.0 5.0 0.00 0.00 0.00 74 1008.3
20260902022034 0 0.0 0.0 0.00 0.00 0.00
20260902021957 60 102 5.0 8.0 0.00 0.00 0.00 73 1008.3
20260902021533 0 0.0 0.0 0.00 0.00 0.00
20260902021458 60 111 4.0 6.0 0.00 0.00 0.00 73 1008.4
20260902021035 0 0.0 0.0 0.00 0.00 0.00
20260902020957 60 107 4.0 6.0 0.00 0.00 0.00 73 1008.4
20260902020535 0 0.0 0.0 0.00 0.00 0.00
20260902020457 60 115 4.0 4.0 0.00 0.00 0.00 73 1008.5
20260902020033 0 0.0 0.0 0.00 0.00 0.00
20260902015957 60 107 4.0 6.0 0.00 0.00 0.00 73 1008.5
20260902015534 0 0.0 0.0 0.00 0.00 0.00
20260902015457 60 116 3.0 4.0 0.00 0.00 0.00 73 1008.5
20260902015034 0 0.0 0.0 0.00 0.00 0.00
20260902014957 60 111 4.0 5.0 0.00 0.00 0.00 72 1008.5
20260902014533 0 0.0 0.0 0.00 0.00 0.00
20260902014456 60 112 4.0 6.0 0.00 0.00 0.00 73 1008.6
20260902014034 0 0.0 0.0 0.00 0.00 0.00
20260902013957 60 90 5.0 7.0 0.00 0.00 0.00 72 1008.6
20260902013457 60 118 4.0 5.0 0.00 0.00 0.00 72 1008.7
20260902013034 0 0.0 0.0 0.00 0.00 0.00
20260902012957 61 108 5.0 8.0 0.00 0.00 0.00 72 1008.5
20260902012457 60 125 4.0 5.0 0.00 0.00 0.00 72 1008.5
20260902012033 0 0.0 0.0 0.00 0.00 0.00
20260902011957 60 104 6.0 9.0 0.00 0.00 0.00 72 1008.4
20260902011531 0 0.0 0.0 0.00 0.00 0.00
20260902011457 60 101 6.0 8.0 0.00 0.00 0.00 72 1008.4
20260902011032 0 0.0 0.0 0.00 0.00 0.00
20260902010958 60 104 6.0 7.0 0.00 0.00 0.00 73 1008.4
20260902010533 0 0.0 0.0 0.00 0.00 0.00
20260902010457 60 112 5.0 6.0 0.00 0.00 0.00 73 1008.4
20260902005957 60 121 4.0 6.0 0.00 0.00 0.00 73 1008.4
20260902005457 60 130 4.0 5.0 0.00 0.00 0.00 73 1008.4
20260902005032 0 0.0 0.0 0.00 0.00 0.00
20260902004957 60 137 4.0 7.0 0.00 0.00 0.00 73 1008.4
20260902004533 0 0.0 0.0 0.00 0.00 0.00
20260902004457 60 114 4.0 5.0 0.00 0.00 0.00 72 1008.3
20260902004032 0 0.0 0.0 0.00 0.00 0.00
20260902003958 60 114 4.0 6.0 0.00 0.00 0.00 72 1008.3
20260902003531 0 0.0 0.0 0.00 0.00 0.00
20260902003457 60 113 5.0 6.0 0.00 0.00 0.00 73 1008.4
20260902003032 0 0.0 0.0 0.00 0.00 0.00
20260902002957 60 111 5.0 7.0 0.00 0.00 0.00 72 1008.4
20260902002532 0 0.0 0.0 0.00 0.00 0.00
20260902002457 60 106 6.0 7.0 0.00 0.00 0.00 72 1008.4
20260902002032 0 0.0 0.0 0.00 0.00 0.00
20260902001957 61 115 4.0 5.0 0.00 0.00 0.00 72 1008.4
20260902001537 0 0.0 0.0 0.00 0.00 0.00
20260902001457 61 114 5.0 6.0 0.00 0.00 0.00 72 1008.4
20260902001029 0 0.0 0.0 0.00 0.00 0.00
20260902000957 61 116 4.0 6.0 0.00 0.00 0.00 72 1008.4
20260902000534 0 0.0 0.0 0.00 0.00 0.00
20260902000459 61 121 4.0 6.0 0.00 0.00 0.00 72 1008.3
20260902000032 0 0.0 0.0 0.00 0.00 0.00
20260901235957 61 111 6.0 7.0 0.00 0.00 0.00 72 1008.3
20260901235458 61 108 5.0 7.0 0.00 0.00 0.00 72 1008.4
20260901234957 61 116 5.0 6.0 0.00 0.00 0.00 72 1008.3
20260901234457 61 104 5.0 6.0 0.00 0.00 0.00 73 1008.3
20260901233958 61 116 5.0 6.0 0.00 0.00 0.00 72 1008.4
20260901233530 0 0.0 0.0 0.00 0.00 0.00
20260901233457 61 111 5.0 7.0 0.00 0.00 0.00 73 1008.3
20260901232957 61 112 6.0 8.0 0.00 0.00 0.00 72 1008.3
20260901232530 0 0.0 0.0 0.00 0.00 0.00
20260901232508 62 132 4.0 6.0 0.00 0.00 0.00 72 1008.3
20260901232027 0 0.0 0.0 0.00 0.00 0.00
20260901231957 62 132 5.0 6.0 0.00 0.00 0.00 72 1008.3
20260901231527 0 0.0 0.0 0.00 0.00 0.00
20260901231458 62 123 5.0 9.0 0.00 0.00 0.00 72 1008.3
20260901231028 0 0.0 0.0 0.00 0.00 0.00
20260901230957 62 131 5.0 7.0 0.00 0.00 0.00 71 1008.3
20260901230528 0 0.0 0.0 0.00 0.00 0.00
20260901230458 62 121 6.0 9.0 0.00 0.00 0.00 71 1008.2
20260901230027 0 0.0 0.0 0.00 0.00 0.00
20260901225958 62 131 4.0 6.0 0.00 0.00 0.00 71 1008.1
20260901225527 0 0.0 0.0 0.00 0.00 0.00
20260901225457 62 113 5.0 8.0 0.00 0.00 0.00 72 1008.1
20260901224958 61 118 6.0 9.0 0.00 0.00 0.00 72 1008.1
20260901224457 61 109 6.0 9.0 0.00 0.00 0.00 73 1008.2
20260901223957 62 115 6.0 7.0 0.00 0.00 0.00 73 1008.2
20260901223527 0 0.0 0.0 0.00 0.00 0.00
20260901223458 62 132 4.0 6.0 0.00 0.00 0.00 72 1008.2
20260901223028 0 0.0 0.0 0.00 0.00 0.00
20260901222957 62 135 6.0 9.0 0.00 0.00 0.00 71 1008.2
20260901222526 0 0.0 0.0 0.00 0.00 0.00
20260901222457 63 121 7.0 9.0 0.00 0.00 0.00 68 1008.2
20260901222024 0 0.0 0.0 0.00 0.00 0.00
20260901221957 63 151 4.0 5.0 0.00 0.00 0.00 69 1008.1
20260901221459 63 145 6.0 11.0 0.00 0.00 0.00 69 1008.1
20260901221020 0 0.0 0.0 0.00 0.00 0.00
20260901221000 63 150 6.0 8.0 0.00 0.00 0.00 67 1008.2
20260901220521 0 0.0 0.0 0.00 0.00 0.00
20260901220458 63 149 4.0 7.0 0.00 0.00 0.00 69 1008.2
20260901215957 62 142 4.0 6.0 0.00 0.00 0.00 69 1008.3
20260901215457 62 131 4.0 6.0 0.00 0.00 0.00 70 1008.2
20260901215021 0 0.0 0.0 0.00 0.00 0.00
20260901214957 62 144 5.0 10.0 0.00 0.00 0.00 71 1008.3
20260901214521 0 0.0 0.0 0.00 0.00 0.00
20260901214458 62 127 4.0 7.0 0.00 0.00 0.00 72 1008.4
20260901214021 0 0.0 0.0 0.00 0.00 0.00
20260901213957 62 112 6.0 9.0 0.00 0.00 0.00 71 1008.4
20260901213523 0 0.0 0.0 0.00 0.00 0.00
20260901213457 62 108 5.0 8.0 0.00 0.00 0.00 72 1008.4
20260901212958 62 125 4.0 7.0 0.00 0.00 0.00 72 1008.5
20260901212458 61 120 5.0 7.0 0.00 0.00 0.00 73 1008.5
20260901212021 0 0.0 0.0 0.00 0.00 0.00
20260901211957 61 109 6.0 9.0 0.00 0.00 0.00 73 1008.5
20260901211457 61 114 6.0 8.0 0.00 0.00 0.00 72 1008.6
20260901211019 0 0.0 0.0 0.00 0.00 0.00
20260901210957 61 116 6.0 9.0 0.00 0.00 0.00 74 1008.6
20260901210518 0 0.0 0.0 0.00 0.00 0.00
20260901210458 61 120 6.0 9.0 0.00 0.00 0.00 74 1008.6
20260901210019 0 0.0 0.0 0.00 0.00 0.00
20260901205957 62 114 6.0 9.0 0.00 0.00 0.00 73 1008.5
20260901205519 0 0.0 0.0 0.00 0.00 0.00
20260901205458 62 107 6.0 9.0 0.00 0.00 0.00 72 1008.7
20260901205019 0 0.0 0.0 0.00 0.00 0.00
20260901204958 62 110 6.0 10.0 0.00 0.00 0.00 73 1008.6
20260901204520 0 0.0 0.0 0.00 0.00 0.00
20260901204457 62 136 4.0 6.0 0.00 0.00 0.00 74 1008.6
20260901204019 0 0.0 0.0 0.00 0.00 0.00
20260901203958 62 126 5.0 9.0 0.00 0.00 0.00 74 1008.6
20260901203520 0 0.0 0.0 0.00 0.00 0.00
20260901203458 62 132 5.0 6.0 0.00 0.00 0.00 74 1008.6
20260901203019 0 0.0 0.0 0.00 0.00 0.00
20260901202958 63 125 5.0 7.0 0.00 0.00 0.00 72 1008.6
20260901202518 0 0.0 0.0 0.00 0.00 0.00
20260901202457 63 139 4.0 7.0 0.00 0.00 0.00 74 1008.5
20260901202017 0 0.0 0.0 0.00 0.00 0.00
20260901201957 63 133 4.0 6.0 0.00 0.00 0.00 75 1008.6
20260901201457 63 120 5.0 8.0 0.00 0.00 0.00 74 1008.5
20260901201017 0 0.0 0.0 0.00 0.00 0.00
20260901200957 63 123 5.0 9.0 0.00 0.00 0.00 75 1008.5
20260901200519 0 0.0 0.0 0.00 0.00 0.00
20260901200457 63 108 5.0 7.0 0.00 0.00 0.00 74 1008.4
20260901200017 0 0.0 0.0 0.00 0.00 0.00
20260901195958 62 112 4.0 6.0 0.00 0.00 0.00 75 1008.5
20260901195517 0 0.0 0.0 0.00 0.00 0.00
20260901195500 62 136 3.0 5.0 0.00 0.00 0.00 77 1008.5
20260901195017 0 0.0 0.0 0.00 0.00 0.00
20260901194957 62 115 5.0 7.0 0.00 0.00 0.00 75 1008.6
20260901194517 0 0.0 0.0 0.00 0.00 0.00
20260901194458 63 99 7.0 10.0 0.00 0.00 0.00 73 1008.5
20260901194018 0 0.0 0.0 0.00 0.00 0.00
20260901193958 63 112 5.0 7.0 0.00 0.00 0.00 73 1008.5
20260901193517 0 0.0 0.0 0.00 0.00 0.00
20260901193459 64 167 6.0 8.0 0.00 0.00 0.00 73 1008.4
20260901193017 0 0.0 0.0 0.00 0.00 0.00
20260901192958 64 142 3.0 6.0 0.00 0.00 0.00 73 1008.5
20260901192459 64 152 5.0 7.0 0.00 0.00 0.00 73 1008.4
20260901192014 0 0.0 0.0 0.00 0.00 0.00
20260901191958 63 129 4.0 8.0 0.00 0.00 0.00 73 1008.5
20260901191512 0 0.0 0.0 0.00 0.00 0.00
20260901191459 63 138 6.0 9.0 0.00 0.00 0.00 73 1008.6
20260901191012 0 0.0 0.0 0.00 0.00 0.00
20260901190958 63 132 5.0 6.0 0.00 0.00 0.00 73 1008.6
20260901190512 0 0.0 0.0 0.00 0.00 0.00
20260901190457 62 169 7.0 9.0 0.00 0.00 0.00 76 1008.6
20260901185957 61 166 4.0 6.0 0.00 0.00 0.00 78 1008.6
20260901185513 0 0.0 0.0 0.00 0.00 0.00
20260901185457 61 155 5.0 7.0 0.00 0.00 0.00 77 1008.6
20260901185012 0 0.0 0.0 0.00 0.00 0.00
20260901184958 61 149 6.0 9.0 0.00 0.00 0.00 77 1008.6
20260901184512 0 0.0 0.0 0.00 0.00 0.00
20260901184458 61 164 7.0 10.0 0.00 0.00 0.00 77 1008.5
20260901184012 0 0.0 0.0 0.00 0.00 0.00
20260901183957 62 153 5.0 9.0 0.00 0.00 0.00 78 1008.6
20260901183512 0 0.0 0.0 0.00 0.00 0.00
20260901183457 63 153 6.0 9.0 0.00 0.00 0.00 70 1008.4
20260901183013 0 0.0 0.0 0.00 0.00 0.00
20260901182957 63 168 5.0 9.0 0.00 0.00 0.00 70 1008.4
20260901182512 0 0.0 0.0 0.00 0.00 0.00
20260901182458 63 127 3.0 5.0 0.00 0.00 0.00 70 1008.3
20260901182010 0 0.0 0.0 0.00 0.00 0.00
20260901181957 62 124 4.0 5.0 0.00 0.00 0.00 71 1008.3
20260901181457 62 148 4.0 6.0 0.00 0.00 0.00 74 1008.6
20260901181010 0 0.0 0.0 0.00 0.00 0.00
20260901180957 62 153 6.0 8.0 0.00 0.00 0.00 72 1008.6
20260901180520 62 121 4.0 6.0 0.00 0.00 0.00 73 1008.6
20260901180510 0 0.0 0.0 0.00 0.00 0.00
20260901180010 0 0.0 0.0 0.00 0.00 0.00
20260901175957 62 124 4.0 6.0 0.00 0.00 0.00 73 1008.6
20260901175510 0 0.0 0.0 0.00 0.00 0.00
20260901175457 61 141 4.0 5.0 0.00 0.00 0.00 75 1008.6
20260901175009 0 0.0 0.0 0.00 0.00 0.00
20260901174957 61 141 4.0 6.0 0.00 0.00 0.00 74 1008.6
20260901174510 0 0.0 0.0 0.00 0.00 0.00
20260901174458 60 121 4.0 6.0 0.00 0.00 0.00 75 1008.6
20260901174009 0 0.0 0.0 0.00 0.00 0.00
20260901173957 60 123 4.0 6.0 0.00 0.00 0.00 75 1008.7
20260901173510 0 0.0 0.0 0.00 0.00 0.00
20260901173457 60 129 4.0 5.0 0.00 0.00 0.00 75 1008.7
20260901173010 0 0.0 0.0 0.00 0.00 0.00
20260901172957 60 116 4.0 6.0 0.00 0.00 0.00 75 1008.7
20260901172508 0 0.0 0.0 0.00 0.00 0.00
20260901172457 60 120 4.0 5.0 0.00 0.00 0.00 76 1008.8
20260901172008 0 0.0 0.0 0.00 0.00 0.00
20260901171957 59 117 5.0 6.0 0.00 0.00 0.00 76 1008.7
20260901171507 0 0.0 0.0 0.00 0.00 0.00
20260901171457 59 124 4.0 5.0 0.00 0.00 0.00 76 1008.7
20260901171008 0 0.0 0.0 0.00 0.00 0.00
20260901170958 59 115 4.0 5.0 0.00 0.00 0.00 76 1008.7
20260901170508 0 0.0 0.0 0.00 0.00 0.00
20260901170457 59 125 4.0 6.0 0.00 0.00 0.00 77 1008.7
20260901165957 59 117 4.0 6.0 0.00 0.00 0.00 77 1008.8
20260901165458 58 114 5.0 6.0 0.00 0.00 0.00 78 1008.8
20260901165008 0 0.0 0.0 0.00 0.00 0.00
20260901164959 58 119 5.0 6.0 0.00 0.00 0.00 79 1008.8
20260901164508 0 0.0 0.0 0.00 0.00 0.00
20260901164457 58 131 4.0 4.0 0.00 0.00 0.00 80 1008.8
20260901164008 0 0.0 0.0 0.00 0.00 0.00
20260901163959 58 125 4.0 5.0 0.00 0.00 0.00 80 1008.8
20260901163509 0 0.0 0.0 0.00 0.00 0.00
20260901163457 58 124 4.0 5.0 0.00 0.00 0.00 81 1008.8
20260901162958 58 116 4.0 5.0 0.00 0.00 0.00 82 1008.8
20260901162508 0 0.0 0.0 0.00 0.00 0.00
20260901162457 58 122 4.0 6.0 0.00 0.00 0.00 81 1008.8
20260901162008 0 0.0 0.0 0.00 0.00 0.00
20260901161957 58 132 4.0 4.0 0.00 0.00 0.00 81 1008.9
20260901161505 0 0.0 0.0 0.00 0.00 0.00
20260901161458 58 108 5.0 6.0 0.00 0.00 0.00 81 1008.9
20260901161005 0 0.0 0.0 0.00 0.00 0.00
20260901160958 58 112 5.0 5.0 0.00 0.00 0.00 80 1008.9
20260901160506 0 0.0 0.0 0.00 0.00 0.00
20260901160457 58 126 4.0 4.0 0.00 0.00 0.00 78 1008.9
20260901160006 0 0.0 0.0 0.00 0.00 0.00
20260901155958 58 128 3.0 4.0 0.00 0.00 0.00 78 1008.9
20260901155506 0 0.0 0.0 0.00 0.00 0.00
20260901155457 58 130 3.0 5.0 0.00 0.00 0.00 78 1008.9
20260901155007 0 0.0 0.0 0.00 0.00 0.00
20260901154958 59 124 4.0 5.0 0.00 0.00 0.00 78 1008.9
20260901154506 0 0.0 0.0 0.00 0.00 0.00
20260901154457 59 113 4.0 6.0 0.00 0.00 0.00 77 1008.9
20260901154006 0 0.0 0.0 0.00 0.00 0.00
20260901153957 60 123 3.0 4.0 0.00 0.00 0.00 74 1008.9
20260901153506 0 0.0 0.0 0.00 0.00 0.00
20260901153457 61 129 2.0 3.0 0.00 0.00 0.00 72 1008.8
20260901153006 0 0.0 0.0 0.00 0.00 0.00
20260901152957 60 100 5.0 6.0 0.00 0.00 0.00 73 1008.8
20260901152506 0 0.0 0.0 0.00 0.00 0.00
20260901152457 60 103 4.0 6.0 0.00 0.00 0.00 73 1008.7
20260901152006 0 0.0 0.0 0.00 0.00 0.00
20260901151957 60 110 4.0 6.0 0.00 0.00 0.00 73 1008.7
20260901151504 0 0.0 0.0 0.00 0.00 0.00
20260901151457 60 110 4.0 5.0 0.00 0.00 0.00 73 1008.7
20260901151001 60 114 4.0 4.0 0.00 0.00 0.00 74 1008.7
20260901150501 0 0.0 0.0 0.00 0.00 0.00
20260901150459 60 119 3.0 4.0 0.00 0.00 0.00 73 1008.7
20260901150001 0 0.0 0.0 0.00 0.00 0.00
20260901145959 60 118 3.0 4.0 0.00 0.00 0.00 73 1008.7
20260901145501 0 0.0 0.0 0.00 0.00 0.00
20260901145457 60 110 4.0 5.0 0.00 0.00 0.00 73 1008.7
20260901145001 0 0.0 0.0 0.00 0.00 0.00
20260901144957 60 107 4.0 4.0 0.00 0.00 0.00 73 1008.6
20260901144501 0 0.0 0.0 0.00 0.00 0.00
20260901144458 60 117 3.0 4.0 0.00 0.00 0.00 73 1008.5
20260901144001 0 0.0 0.0 0.00 0.00 0.00
20260901143959 60 104 4.0 6.0 0.00 0.00 0.00 73 1008.5
20260901143501 0 0.0 0.0 0.00 0.00 0.00
20260901143458 59 103 4.0 5.0 0.00 0.00 0.00 73 1008.5
20260901143001 0 0.0 0.0 0.00 0.00 0.00
20260901142958 59 106 4.0 5.0 0.00 0.00 0.00 73 1008.5
20260901142501 0 0.0 0.0 0.00 0.00 0.00
20260901142457 59 99 4.0 6.0 0.00 0.00 0.00 72 1008.5
20260901141957 59 97 4.0 5.0 0.00 0.00 0.00 72 1008.5
20260901141459 59 91 4.0 5.0 0.00 0.00 0.00 72 1008.5
20260901140958 0 0.0 0.0 0.00 0.00 0.00
20260901140458 59 102 4.0 6.0 0.00 0.00 0.00 72 1008.5
20260901135958 0 0.0 0.0 0.00 0.00 0.00
20260901135459 0 0.0 0.0 0.00 0.00 0.00
20260901135457 59 103 3.0 4.0 0.00 0.00 0.00 72 1008.4
20260901134958 0 0.0 0.0 0.00 0.00 0.00
20260901134500 58 59 2.0 3.0 0.00 0.00 0.00 73 1008.3
20260901134459 0 0.0 0.0 0.00 0.00 0.00
20260901133958 59 65 2.0 4.0 0.00 0.00 0.00 72 1008.3
20260901133458 59 72 3.0 4.0 0.00 0.00 0.00 72 1008.3
20260901132959 0 0.0 0.0 0.00 0.00 0.00
20260901132459 0 0.0 0.0 0.00 0.00 0.00
20260901132457 59 89 3.0 4.0 0.00 0.00 0.00 72 1008.3
20260901132000 0 0.0 0.0 0.00 0.00 0.00
20260901131959 59 88 3.0 4.0 0.00 0.00 0.00 73 1008.2
20260901131457 59 84 3.0 4.0 0.00 0.00 0.00 73 1008.1
20260901130957 0 0.0 0.0 0.00 0.00 0.00
20260901130458 59 68 2.0 3.0 0.00 0.00 0.00 72 1008.1
20260901130456 0 0.0 0.0 0.00 0.00 0.00
20260901125958 59 86 3.0 4.0 0.00 0.00 0.00 72 1008.1
20260901125457 0 0.0 0.0 0.00 0.00 0.00
20260901125002 0 0.0 0.0 0.00 0.00 0.00
20260901124958 59 48 2.0 3.0 0.00 0.00 0.00 74 1008.1
20260901124457 59 48 2.0 3.0 0.00 0.00 0.00 74 1008.2
20260901123957 0 0.0 0.0 0.00 0.00 0.00
20260901123457 0 0.0 0.0 0.00 0.00 0.00
20260901122957 0 0.0 0.0 0.00 0.00 0.00
20260901122458 59 80 2.0 3.0 0.00 0.00 0.00 73 1008.2
20260901121957 59 75 3.0 4.0 0.00 0.00 0.00 73 1008.2
20260901121954 0 0.0 0.0 0.00 0.00 0.00
20260901121457 59 91 3.0 4.0 0.00 0.00 0.00 72 1008.3
20260901121454 0 0.0 0.0 0.00 0.00 0.00
20260901120959 59 66 3.0 4.0 0.00 0.00 0.00 72 1008.2
20260901120955 0 0.0 0.0 0.00 0.00 0.00
20260901120457 59 80 3.0 4.0 0.00 0.00 0.00 72 1008.2
20260901115958 59 67 3.0 4.0 0.00 0.00 0.00 72 1008.2
20260901115954 0 0.0 0.0 0.00 0.00 0.00
20260901115457 59 64 2.0 3.0 0.00 0.00 0.00 72 1008.2
20260901115455 0 0.0 0.0 0.00 0.00 0.00
20260901114957 59 75 3.0 3.0 0.00 0.00 0.00 71 1008.2
20260901114457 58 63 3.0 4.0 0.00 0.00 0.00 73 1008.2
20260901114455 0 0.0 0.0 0.00 0.00 0.00
20260901114001 59 45 2.0 3.0 0.00 0.00 0.00 73 1008.3
20260901113956 0 0.0 0.0 0.00 0.00 0.00
20260901113458 59 47 1.0 3.0 0.00 0.00 0.00 73 1008.3
20260901113455 0 0.0 0.0 0.00 0.00 0.00
20260901112957 59 51 1.0 3.0 0.00 0.00 0.00 73 1008.4
20260901112955 0 0.0 0.0 0.00 0.00 0.00
20260901112458 59 54 1.0 2.0 0.00 0.00 0.00 73 1008.5
20260901112455 0 0.0 0.0 0.00 0.00 0.00
20260901111958 59 55 2.0 4.0 0.00 0.00 0.00 73 1008.1
20260901111956 0 0.0 0.0 0.00 0.00 0.00
20260901111459 59 21 1.0 2.0 0.00 0.00 0.00 73 1008.1
20260901111452 0 0.0 0.0 0.00 0.00 0.00
20260901110957 59 46 1.0 2.0 0.00 0.00 0.00 73 1008.1
20260901110952 0 0.0 0.0 0.00 0.00 0.00
20260901110457 59 30 2.0 2.0 0.00 0.00 0.00 72 1008.1
20260901110453 0 0.0 0.0 0.00 0.00 0.00
20260901105957 59 40 1.0 2.0 0.00 0.00 0.00 72 1008.1
20260901105457 59 13 2.0 2.0 0.00 0.00 0.00 72 1008.1
20260901105452 0 0.0 0.0 0.00 0.00 0.00
20260901104957 59 49 2.0 2.0 0.00 0.00 0.00 72 1008.1
20260901104953 0 0.0 0.0 0.00 0.00 0.00
20260901104500 59 54 2.0 3.0 0.00 0.00 0.00 72 1008.1
20260901104452 0 0.0 0.0 0.00 0.00 0.00
20260901103957 59 62 2.0 3.0 0.00 0.00 0.00 72 1008.1
20260901103457 59 48 2.0 3.0 0.00 0.00 0.00 73 1008.1
20260901103453 0 0.0 0.0 0.00 0.00 0.00
20260901102958 59 49 2.0 2.0 0.00 0.00 0.00 73 1008.1
20260901102954 0 0.0 0.0 0.00 0.00 0.00
20260901102458 59 51 2.0 3.0 0.00 0.00 0.00 74 1008.1
20260901102453 0 0.0 0.0 0.00 0.00 0.00
20260901101958 59 33 2.0 2.0 0.00 0.00 0.00 74 1008.1
20260901101951 0 0.0 0.0 0.00 0.00 0.00
20260901101457 59 29 1.0 2.0 0.00 0.00 0.00 74 1008.2
20260901101450 0 0.0 0.0 0.00 0.00 0.00
20260901100958 59 43 2.0 2.0 0.00 0.00 0.00 74 1008.1
20260901100951 0 0.0 0.0 0.00 0.00 0.00
20260901100458 59 55 2.0 3.0 0.00 0.00 0.00 75 1008.1
20260901100450 0 0.0 0.0 0.00 0.00 0.00
20260901095957 59 42 0.0 2.0 0.00 0.00 0.00 75 1008.1
20260901095947 0 0.0 0.0 0.00 0.00 0.00
20260901095458 59 22 1.0 3.0 0.00 0.00 0.00 75 1008.1
20260901095448 0 0.0 0.0 0.00 0.00 0.00
20260901094957 59 47 1.0 2.0 0.00 0.00 0.00 75 1008.2
20260901094458 59 48 1.0 2.0 0.00 0.00 0.00 75 1008.2
20260901093957 59 46 1.0 2.0 0.00 0.00 0.00 75 1008.1
20260901093948 0 0.0 0.0 0.00 0.00 0.00
20260901093457 60 45 1.0 3.0 0.00 0.00 0.00 74 1008.1
20260901093449 0 0.0 0.0 0.00 0.00 0.00
20260901092958 60 31 1.0 2.0 0.00 0.00 0.00 74 1008.1
20260901092948 0 0.0 0.0 0.00 0.00 0.00
20260901092458 60 45 1.0 2.0 0.00 0.00 0.00 73 1008.1
20260901092448 0 0.0 0.0 0.00 0.00 0.00
20260901091958 60 50 1.0 2.0 0.00 0.00 0.00 73 1008.1
20260901091947 0 0.0 0.0 0.00 0.00 0.00
20260901091459 60 355 0.0 1.0 0.00 0.00 0.00 73 1008.1
20260901091448 0 0.0 0.0 0.00 0.00 0.00
20260901090957 61 318 1.0 2.0 0.00 0.00 0.00 72 1008.1
20260901090945 0 0.0 0.0 0.00 0.00 0.00